Regional Weather Roundup
Issued by NWS Upton, NY

Current Version | Previous Version | Text Only | Print | Product List | Glossary On
Versions: 1 2 3 4 5 6 7 8 9 10 11 12 13 14 15 16 17 18 19 20 21 22 23 24 25 26 27 28 29 30 31 32 33 34 35 36 37 38 39 40 41 42 43 44 45 46 47 48 49 50
000 ASUS41 KOKX 102304 RWROKX REGIONAL WEATHER ROUNDUP NATIONAL WEATHER SERVICE NEW YORK NY 600 PM EST WED FEB 10 2016 NOTE: "FAIR" INDICATES FEW OR NO CLOUDS BELOW 12,000 FEET WITH NO SIGNIFICANT WEATHER AND/OR OBSTRUCTIONS TO VISIBILITY. NYZ071-072-176-178-NJZ106-104-110000- NEW YORK CITY METRO AREA CITY SKY/WX TMP DP RH WIND PRES REMARKS CENTRAL PARK CLOUDY 36 17 46 W8G23 29.71R WCI 30 LAGUARDIA APRT MOCLDY 37 17 44 W16 29.69R WCI 28 KENNEDY INTL MOCLDY 36 19 50 W21 29.71R WCI 25 NEWARK/LIBERTY PTCLDY 35 17 47 W15G22 29.71R WCI 25 BRNX BOT. GARD N/A 36 19 51 W8 29.69S WCI 29 TETERBORO CLOUDY 36 17 46 W13 29.69R WCI 27 $$ NYZ177-179-078>081-110000- LONG ISLAND NEW YORK CITY SKY/WX TMP DP RH WIND PRES REMARKS FARMINGDALE CLOUDY 38 20 48 W9 29.69R WCI 31 ISLIP MOCLDY 36 22 56 W7 29.66R WCI 30 SHIRLEY MOCLDY 36 21 54 W7 29.68R WCI 30 RIVERHEAD N/A 36 19 51 W6 29.64R WCI 31 WESTHAMPTON CLOUDY 36 22 56 W8 29.68R WCI 30 EAST HAMPTON FAIR 35 24 63 W6 29.64R WCI 30 MONTAUK POINT N/A 36 28 73 W7 29.65R WCI 30 $$ NYZ052-065-067-110000- HUDSON VALLEY CITY SKY/WX TMP DP RH WIND PRES REMARKS WHITE PLAINS MOCLDY 35 17 47 W8 29.65R WCI 29 NEWBURGH MOCLDY 34 19 55 W14G23 29.65R WCI 24 MONTGOMERY CLOUDY 34 19 54 W8 29.65R WCI 27 POUGHKEEPSIE PTCLDY 36 18 48 W8 29.65R WCI 30 ALBANY MOCLDY 32 21 64 W14 29.64R WCI 22 $$ NJZ001-105-106-008-010-013-015-019>022-104-110000- NEW JERSEY CITY SKY/WX TMP DP RH WIND PRES REMARKS NEWARK/LIBERTY PTCLDY 35 17 47 W15G22 29.71R WCI 25 TETERBORO CLOUDY 36 17 46 W13 29.69R WCI 27 CALDWELL PTCLDY 34 17 50 W8 29.70R WCI 27 MORRISTOWN MOCLDY 34 18 51 W13 29.71R WCI 25 SOMERVILLE NOT AVBL SUSSEX CLOUDY 34 18 52 SW3 29.67R ANDOVER N/A 32 15 49 VRB6 29.68R WCI 26 TRENTON PTCLDY 32 16 51 W10 29.75R WCI 24 MILLVILLE MOCLDY 32 17 54 W8 29.79R WCI 25 ATLANTIC CITY MOCLDY 32 17 54 W9G18 29.78R WCI 24 WRIGHTSTOWN CLOUDY 32 19 57 W9G18 29.74R WCI 25 TOMS RIVER CLOUDY 34 18 51 W13G18 29.76R WCI 25 BELMAR MOCLDY 34 12 40 W13 29.74R WCI 25 $$ PAZ047>061-062-071-110000- EASTERN PENNSYLVANIA CITY SKY/WX TMP DP RH WIND PRES REMARKS PHILADELPHIA MOCLDY 33 14 45 W14 29.80R WCI 23 ALLENTOWN CLOUDY 31 16 54 W10 29.74R WCI 22 SCRANTON CLOUDY 28 18 66 SW16 29.68R WCI 16 $$ CTZ002-004>006-009-010-012-RIZ004-006-007-MAZ004-011-015-110000- SOUTHERN NEW ENGLAND IN CT CITY SKY/WX TMP DP RH WIND PRES REMARKS BRADLEY INTL MOCLDY 34 25 69 W12 29.61R WCI 25 HARTFORD MOCLDY 36 25 64 W3 29.63R DANBURY MOCLDY 34 16 47 W6 29.65R WCI 29 WTRBRY/OXFORD PTCLDY 34 12 40 W5 29.63R WCI 30 BRIDGEPORT CLEAR 35 21 56 W7 29.66R WCI 29 MERIDEN MOCLDY 36 19 50 CALM 29.64R NEW HAVEN PTCLDY 37 20 50 W6 29.65R WCI 32 CHESTER FAIR 34 25 69 W3 29.63R GROTON CLOUDY 36 32 85 SW6 29.64R WCI 31 WILLIMANTIC MOCLDY 34 26 72 SW3 29.62R IN RI CITY SKY/WX TMP DP RH WIND PRES REMARKS PROVIDENCE MOCLDY 34 27 75 W6 29.62R WCI 29 BLOCK ISLAND MOCLDY 36 28 75 W7 29.62R WCI 30 WESTERLY PTCLDY 34 28 79 CALM 29.64R IN MA CITY SKY/WX TMP DP RH WIND PRES REMARKS BOSTON CLOUDY 35 29 78 S8 29.60R WCI 29 WORCESTER CLOUDY 29 25 85 W8 29.56R WCI 21 WESTFIELD CLOUDY 33 24 69 NW14 29.62R WCI 23 PROVINCETOWN LGT RAIN 35 31 85 SW10 29.61R WCI 27 NANTUCKET CLOUDY 35 32 88 CALM 29.62R $$ ANZ330-335-338-340-345-350-353-355-110000- COASTAL MARINE OBSERVATIONS STATION/POSITION TIME SKY/WX TEMP WIND PRES VSBY WAVE AIR SEA DIR/SP/G HT/PER (UTC) (F) (DEG/KT/KT) (MB) (MI) (FT/S) NY HARB ENTRANCE 2150 37 43 270/ 19/ 23 1004.2 4/ 4 4S FIRE IS NOT AVBL 20S FIRE ISLAND 2150 38 44 280/ 21/ 25 1004.2 6/11 GREAT SOUTH BAY NOT AVBL 23SW MTP 2250 39 45 280/ 17/ 21 1003.5 7/ 9 HUDSON CANYON 2150 39 48 1004.8 9/ 7 KINGS POINT 2200 38 39 320/ 13/ 17 N/A EXECUTION ROCKS NOT AVBL CENTRAL LI SOUND 2200 39 270/ 16/ 19 N/A 2/ 3 EASTERN LI SOUND 2215 38 42 260/ 10/ 12 N/A ROBBINS REEF 2200 36 270/ 17/ 20 N/A $$ >>>>>>>>>>>>>>>>>>>>>>>>>>>> KEY <<<<<<<<<<<<<<<<<<<<<<<<<<< > < > SKY/WX - SKY CONDITION/PRESENT WEATHER < > TMP - TEMPERATURE IN FAHRENHEIT < > DP - DEWPOINT IN FAHRENHEIT < > RH - RELATIVE HUMIDITY IN PERCENT < > WIND - DIRECTION AND SPEED IN MPH < > PRES - MEAN SEA LEVEL PRESSURE IN INCHES OF HG < > WCI - WIND CHILL INDEX < > VSB - VISIBILITY IN MILES < > HX - HEAT INDEX < > TC - TEMPERATURE IN CELSIUS < > VRB - VARIABLE WIND DIRECTION < > < >>>>>>>>>>>>>>>>>>>>>>>>>>>> KEY <<<<<<<<<<<<<<<<<<<<<<<<<<<

USA.gov is the U.S. government's official web portal to all federal, state and local government web resources and services.